ARIRANG-2 (KOMPSAT-2)

Last updated on Tue Jul 01 2025 00:02:29 GMT+0000 (Coordinated Universal Time)

1 29268U 06031A 25181.56159390 .00000197 00000+0 45767-4 0 9991 2 29268 97.8363 18.0210 0015907 107.4605 317.5251 14.64314637 10017
UTC large
Height (km)
Speed (km/s)
/
Latitude / Longitude
Inclination (degrees)
Orbital Period (minutes)
Azimuth
Elevation
Range (km)
Doppler Factor

Next 0 passes for location: London (51.5072 / 0.1276)

Sorry there are no passes over London.